Location: Gu�tanj
(46.5431°N, 14.9692°E)
Time: 07:24:34
(UTC+00:00)

Cosmos 1727 Rocket - Pass Details

Date: 03 March 2021
Orbit: 961 x 996 km, 82.9° (Epoch: 19 April)

Event Time Altitude Azimuth Distance (km) Brightness Sun altitude
Rises 18:42:12 0° 354° (N) 3,659 7.2 -20.2°
Reaches altitude 10° 18:44:47 10° 359° (N) 2,709 6.5 -20.6°
Maximum altitude 18:50:51 55° 77° (ENE) 1,150 4.0 -21.6°
Enters shadow 18:52:54 39° 131° (SE) 1,421 4.4 -21.9°
